Location: Unspecified
(29.9680°N, 0.0000°E)
Time: 05:26:31
(UTC+00:00)

A-11 Canister half - Pass Details

Date: 23 June 2019
Orbit: 1527 x 1682 km, 47.3° (Epoch: 13 October)

Event Time Altitude Azimuth Distance (km) Brightness Sun altitude
Rises 12:50:00 0° 296° (WNW) 4,688 11.6 77.5°
Reaches altitude 10° 12:53:42 10° 284° (WNW) 3,715 11.3 76.8°
Maximum altitude 13:00:52 25° 234° (SW) 2,739 11.0 75.4°
Drops below altitude 10° 13:08:11 10° 183° (S) 3,785 11.3 73.9°
Sets 13:12:03 0° 171° (S) 4,793 11.6 73.1°
